Temperature
20 19 20 21 25 28 30 30 30 30 30 29 29 29 29 28 28 25 21 21 21 20 20 21 20 20 20 20 20 20 20 20 20 20 19 19 19 19 19 19 19 19 19 18 18 18 18 18 18
20 20 21 24 28 30 30 30 30 30 29 28 28 28 28 25 23 21 21 20 20 20 20 20 20 20 20 20 20 20 20 20 19 19 19 19 19 19 19 19 19 19 18 18 18 18 18 18 18
20 20 23 28 29 30 30 30 30 30 29 29 28 27 26 24 22 21 20 20 21 20 19 20 20 20 20 20 19 19 19 19 19 19 19 19 19 19 19 19 18 18 18 18 18 18 18 18 18
20 22 25 29 30 30 30 30 30 30 29 29 29 27 24 20 21 21 20 20 21 20 19 19 20 20 19 19 19 19 19 19 19 19 19 19 19 19 19 18 18 18 18 18 18 18 18 18 18
22 25 29 30 30 30 30 30 29 30 30 29 29 27 23 19 20 20 20 20 20 20 20 19 20 19 19 19 19 19 19 19 19 19 19 19 19 19 18 18 18 18 18 18 18 18 18 18 18
25 27 29 31 30 30 30 29 30 30 29 28 28 26 22 19 19 19 20 20 21 20 20 19 19 19 19 19 19 19 19 19 19 19 19 19 18 18 18 18 18 18 18 18 18 18 18 18 18
26 28 30 30 30 30 30 29 29 29 28 27 27 26 22 19 19 19 19 20 20 20 20 19 19 19 19 19 19 19 19 19 19 19 19 19 18 18 18 18 18 18 18 18 18 18 18 18 18
25 28 30 30 30 30 29 28 28 28 27 25 26 26 24 19 19 19 19 19 19 19 19 19 19 19 18 18 19 19 19 19 19 18 19 19 18 18 18 18 18 18 18 18 18 18 18 17 18
24 28 29 30 29 30 29 29 27 26 26 25 24 25 23 19 19 19 19 19 18 18 18 19 19 18 18 18 18 18 19 19 18 18 18 18 18 18 18 18 18 18 18 18 18 17 18 18 17
26 28 29 30 30 30 29 28 27 27 27 25 22 21 20 19 19 20 20 19 19 18 18 18 18 18 18 18 18 18 18 18 18 18 18 18 18 18 17 17 18 18 18 18 18 18 18 17 17
27 28 29 29 28 28 28 27 27 28 27 25 23 21 20 20 20 21 20 20 19 19 18 18 18 18 18 18 18 18 18 18 18 18 18 18 18 17 17 17 17 17 17 17 17 17 17 17 17
27 28 27 27 27 27 27 27 27 27 25 23 22 21 20 20 20 20 20 19 19 18 18 18 18 18 18 18 18 18 18 18 17 17 17 17 17 17 17 17 17 17 17 17 17 17 17 17 17
27 28 26 26 26 26 26 26 25 23 22 21 20 20 20 20 20 19 19 19 18 18 18 18 18 18 18 18 18 18 17 17 17 17 17 17 17 17 17 17 17 17 16 16 16 16 16 16 17
28 27 26 26 26 25 26 25 24 22 21 20 20 20 20 19 19 18 18 18 18 18 18 18 18 18 18 18 18 17 17 17 17 16 16 16 16 16 16 16 16 16 16 16 16 16 16 16 16
26 27 27 26 26 25 26 26 24 21 20 20 20 19 19 18 18 18 18 18 18 18 18 18 18 18 17 17 17 17 17 16 16 16 16 16 15 15 15 15 15 15 15 15 15 15 15 16 16
28 28 28 27 26 25 26 26 23 21 21 20 20 19 18 18 18 18 18 18 17 17 18 17 17 17 17 17 17 17 16 16 16 15 15 15 15 15 14 14 15 14 14 14 15 15 15 15 15
28 28 28 27 26 26 27 26 23 21 21 21 20 19 19 18 18 17 17 17 17 17 17 17 17 17 17 17 17 16 16 15 15 14 14 14 14 14 13 14 14 14 14 14 14 15 14 14 14
28 28 27 27 26 26 26 25 23 22 21 21 20 19 19 18 18 18 17 17 17 17 17 17 17 17 17 17 16 16 15 15 14 14 14 13 13 13 13 13 13 13 13 13 13 13 13 14 14
28 28 27 26 25 26 26 25 24 22 21 21 20 20 19 19 18 18 17 17 17 17 17 17 17 17 17 16 16 15 15 14 14 14 13 13 12 12 12 12 12 12 13 13 13 13 13 14 14
27 27 26 25 25 25 25 24 24 22 22 21 21 20 20 19 18 18 17 17 17 17 17 17 17 17 16 16 16 15 15 14 14 13 12 12 12 12 12 11 12 12 12 12 12 12 13 13 14
27 27 27 25 24 25 24 23 23 22 21 21 21 20 20 20 19 18 18 18 17 17 17 17 17 17 16 16 15 15 14 14 14 13 12 12 11 11 11 11 11 11 12 12 12 12 12 13 13
27 27 26 25 25 25 24 24 23 23 22 22 21 21 20 20 20 19 19 18 18 18 17 17 17 17 16 16 15 15 14 14 13 13 12 11 11 11 11 10 10 11 11 11 11 12 11 12 13
27 27 26 26 26 26 25 25 24 23 23 23 22 22 21 21 21 20 20 19 19 18 18 17 17 17 16 16 15 14 14 14 13 12 12 11 11 11 10 10 10 10 10 10 10 10 11 11 12
26 26 26 26 27 26 25 25 25 25 24 24 24 23 22 22 21 20 20 19 19 18 18 17 17 17 16 16 15 14 13 13 12 12 11 11 12 11 11 10 10 10 10 10 10 10 10 10 10
27 27 26 26 26 26 25 25 25 25 25 25 24 23 23 22 22 21 20 20 19 18 18 17 17 16 16 15 14 14 13 12 12 11 12 11 12 11 11 10 9 10 9 9 9 9 9 10 10
27 27 26 25 26 26 25 26 26 26 25 24 24 24 23 23 22 22 21 20 19 18 18 17 17 16 15 15 14 13 13 12 12 11 11 11 11 11 10 10 9 9 9 9 9 9 9 9 9
28 28 28 27 27 26 26 26 26 25 25 25 25 24 24 23 23 22 21 20 19 18 18 17 16 16 15 14 13 13 12 12 11 11 11 11 10 10 10 10 9 9 9 9 9 9 9 9 9
28 28 27 27 25 26 26 26 26 26 26 26 26 25 24 23 23 22 21 20 19 18 17 17 16 15 15 14 13 13 12 11 11 11 10 10 10 10 10 10 9 9 9 9 9 9 9 9 9
27 27 27 27 27 26 26 27 28 27 27 27 26 26 25 24 23 22 21 20 19 18 17 16 16 15 14 14 13 12 12 11 11 11 10 10 10 10 10 9 9 9 9 9 8 8 8 8 8
28 28 27 26 26 26 26 27 28 28 28 27 27 26 25 24 23 21 20 19 18 18 17 16 15 15 14 13 13 12 12 11 11 11 10 10 10 10 10 9 9 9 9 9 8 8 8 8 8
Wind_Speed
17 13 7 4 5 5 2 4 3 4 4 6 6 5 6 7 5 6 8 13 16 17 18 18 14 13 12 12 12 13 13 12 12 12 11 10 9 8 8 7 6 5 5 4 4 4 4 4 5
15 10 6 5 5 2 4 4 4 4 4 5 6 7 8 9 8 8 9 13 17 17 18 17 16 14 13 12 12 12 12 12 11 10 10 9 8 7 7 6 5 5 4 4 4 4 4 4 4
13 9 5 4 4 3 3 4 4 3 3 2 5 6 6 7 7 6 10 16 17 15 16 17 16 14 13 12 11 11 11 11 10 10 9 8 7 6 5 5 5 5 4 4 4 4 4 4 4
8 6 5 7 5 2 3 4 1 4 5 4 6 8 7 7 4 8 14 16 16 15 15 17 14 14 13 12 11 11 11 10 10 9 8 7 6 6 5 5 5 5 5 5 5 5 5 5 5
7 5 7 8 3 2 2 3 2 4 4 5 6 9 7 6 9 12 14 15 15 14 14 16 13 13 12 11 11 10 10 10 9 9 8 7 6 6 6 6 6 6 6 6 6 6 6 7 7
5 5 9 7 2 2 3 2 4 6 8 7 8 10 7 6 9 10 12 13 14 13 13 15 12 11 11 10 10 10 9 9 8 8 7 7 6 6 7 7 7 8 8 7 7 7 7 8 8
7 7 9 6 2 3 4 3 4 7 9 7 6 8 8 9 9 10 11 11 11 11 11 12 13 12 10 8 8 8 8 7 7 6 6 6 6 7 7 8 8 9 9 9 9 9 9 9 9
6 6 9 7 4 3 3 4 4 5 8 6 4 6 9 11 11 11 11 11 10 8 8 8 8 8 8 9 7 4 4 4 4 4 4 5 7 8 8 10 9 9 9 10 10 10 11 11 11
5 8 9 5 3 2 2 4 4 4 8 7 5 7 13 16 14 13 12 11 10 7 6 5 6 5 5 4 6 5 5 4 5 6 5 6 7 6 7 7 4 7 9 9 10 10 10 11 12
6 10 6 2 3 2 0 1 4 6 8 8 10 13 16 15 14 14 13 12 11 9 7 5 4 4 4 3 4 2 2 2 2 2 3 4 4 5 7 3 5 8 9 10 11 10 11 12 12
7 8 5 5 5 5 3 3 4 7 6 7 11 15 15 14 13 12 11 10 10 9 7 5 4 4 3 2 1 1 1 1 1 2 3 4 5 5 6 6 5 7 9 9 8 10 10 10 10
7 6 7 7 6 5 4 4 4 2 5 8 11 13 13 13 12 11 10 9 9 8 7 6 5 5 3 3 3 2 1 1 2 2 4 3 3 4 4 4 5 6 5 5 7 6 8 9 10
9 5 4 3 2 2 4 5 5 6 7 9 11 11 11 11 10 9 9 8 8 8 7 6 5 4 4 3 1 3 3 3 3 3 3 4 4 4 4 3 4 5 5 5 5 6 7 8 10
3 3 2 1 2 3 7 7 6 6 7 9 9 9 9 9 10 9 9 9 8 8 8 7 6 5 5 4 3 2 3 3 4 4 6 6 5 4 4 3 3 4 4 5 6 6 6 7 7
3 4 4 3 3 5 7 7 5 7 7 8 8 8 8 8 8 8 8 9 9 8 8 7 6 6 6 5 4 3 3 3 4 5 5 6 6 5 5 4 4 3 4 4 5 6 6 7 7
6 7 5 5 3 4 8 6 8 6 7 7 7 8 7 7 7 7 8 8 7 7 7 6 6 7 6 5 3 3 3 4 4 4 5 6 7 6 6 5 5 4 6 5 5 6 6 6 7
7 5 2 5 3 4 6 3 8 6 7 7 7 7 7 7 7 7 8 8 7 7 7 6 5 6 5 4 3 3 2 3 3 4 6 6 7 7 7 5 4 6 6 5 6 6 7 8 7
3 4 2 2 2 4 5 3 8 7 6 6 6 7 7 8 8 9 8 8 8 7 6 6 6 5 4 3 2 1 1 1 3 4 5 6 6 7 8 6 4 7 6 6 5 6 6 7 7
6 5 1 2 1 4 4 5 7 8 7 6 6 7 7 7 8 8 9 9 8 8 8 7 7 6 4 3 2 2 2 3 3 4 4 5 6 6 6 7 5 6 6 6 8 7 8 7 6
4 4 2 3 2 3 3 4 6 7 6 6 6 7 7 8 9 9 10 10 9 9 9 8 8 7 6 3 2 2 3 4 4 4 3 4 5 7 6 6 8 6 6 7 7 7 8 8 6
3 3 2 3 4 4 4 5 6 6 5 5 6 7 8 8 10 10 11 10 10 10 10 9 8 7 7 5 4 3 3 5 4 4 4 4 6 6 6 7 7 7 8 7 7 8 9 8 8
2 1 2 5 6 3 3 2 6 7 7 8 9 9 9 10 10 10 11 11 11 11 10 9 9 8 7 7 6 6 6 7 6 6 5 6 6 6 6 6 6 7 8 6 8 6 7 8 9
2 2 4 5 4 2 2 2 5 7 7 9 10 11 11 12 12 12 12 11 11 10 9 9 9 8 7 7 6 6 7 6 6 6 6 7 6 5 6 6 6 6 7 6 7 7 8 8 8
6 5 5 6 6 1 2 3 3 6 8 10 11 12 11 11 11 11 11 10 10 9 9 8 8 7 7 7 6 6 6 7 7 8 8 7 6 5 5 6 6 7 7 7 7 7 8 7 8
5 5 4 4 2 2 2 2 2 5 7 8 10 12 12 11 11 11 11 11 10 9 8 7 7 6 6 7 6 6 6 7 8 8 7 7 7 6 5 6 6 7 7 7 8 8 8 9 9
3 5 5 6 5 3 2 1 4 6 7 8 9 10 10 11 10 10 9 9 8 8 7 7 6 6 6 6 6 6 6 7 7 6 8 8 8 8 7 8 8 8 8 9 8 9 9 8 9
2 2 5 4 3 2 2 1 4 7 9 10 10 10 10 10 9 8 8 8 7 7 7 6 6 6 6 6 6 6 7 7 8 8 9 8 7 8 8 9 9 9 9 9 10 10 9 9 10
3 1 2 4 5 3 2 1 2 6 9 11 11 11 10 9 9 8 8 8 7 7 7 6 6 6 6 6 7 6 7 7 8 9 9 9 10 9 10 10 10 10 10 10 10 11 10 10 10
4 3 3 3 4 6 4 3 4 3 7 8 10 10 9 9 9 8 8 8 8 7 7 7 6 6 7 7 7 7 8 8 8 8 9 9 10 10 10 11 11 11 11 11 10 11 11 12 12
4 3 4 5 3 4 6 2 7 4 5 7 7 7 8 8 8 9 9 9 8 8 7 7 7 7 7 7 7 8 8 8 9 10 10 10 10 10 11 11 11 12 12 11 11 12 12 12 13
Wind_Direction
164 174 190 211 238 228 69 50 5 3 45 48 53 54 58 44 25 78 117 138 140 142 140 147 145 143 137 132 128 128 128 128 133 137 140 143 146 149 151 155 159 164 163 152 140 129 122 121 120
168 172 199 231 260 220 92 47 27 41 80 89 80 77 76 67 61 97 130 139 146 144 145 149 143 145 142 137 133 129 128 128 129 131 135 140 146 151 156 163 171 179 177 169 161 152 143 139 137
166 192 232 244 257 322 28 31 37 84 104 114 95 68 66 64 79 108 134 147 149 143 143 139 147 148 147 143 139 136 134 134 134 136 139 144 150 157 168 178 186 193 194 189 185 181 172 163 158
172 206 232 249 253 18 338 334 329 155 113 103 114 94 84 39 41 114 137 150 146 145 149 140 151 150 149 149 147 146 144 144 144 147 151 156 163 173 185 195 206 213 212 210 206 201 191 183 180
218 237 239 238 245 23 349 335 209 178 127 114 115 106 88 49 80 118 141 148 148 150 145 141 150 150 151 153 153 153 154 155 156 159 163 170 180 191 201 210 218 226 229 226 226 220 205 197 195
219 241 248 241 176 85 62 64 140 132 121 109 111 111 89 96 106 125 140 151 151 149 145 137 144 149 154 158 159 159 162 164 167 170 177 187 198 209 218 223 228 232 237 238 237 235 223 213 207
253 251 255 256 227 135 71 78 121 137 123 104 116 115 119 119 121 131 139 147 149 150 145 149 158 157 160 161 164 165 167 172 178 183 192 205 217 226 232 235 236 238 241 244 242 240 233 222 217
270 261 246 233 231 145 104 104 96 124 112 107 118 132 140 137 135 134 138 143 143 146 145 150 160 156 170 168 157 168 174 179 191 201 212 225 232 233 235 240 235 244 248 249 249 246 241 232 224
256 249 243 230 231 147 124 129 107 120 122 103 76 88 121 134 139 140 143 145 144 142 143 154 150 154 173 172 148 178 179 180 213 209 207 238 248 249 237 241 240 254 258 257 254 250 245 238 229
235 250 250 294 292 285 232 158 146 162 140 115 104 105 124 139 148 152 153 154 155 152 151 146 146 156 166 156 149 177 192 151 251 304 290 272 281 285 285 292 263 263 261 258 250 249 246 238 234
237 260 293 292 295 282 243 193 184 188 156 142 139 138 142 146 153 154 153 156 152 151 150 147 145 136 134 135 111 74 51 51 319 332 313 302 293 279 280 278 260 256 253 257 246 241 244 241 239
245 271 291 295 302 266 233 175 159 153 101 118 133 142 145 151 152 153 152 149 146 150 145 137 132 130 113 86 78 73 45 19 340 333 315 305 289 288 290 280 283 272 269 271 269 261 258 256 250
240 270 297 303 276 220 187 163 126 101 106 120 132 143 145 147 145 142 144 145 147 146 138 130 133 129 121 112 73 60 44 13 21 356 4 340 312 308 302 298 295 289 290 278 275 273 270 264 254
267 245 231 216 131 155 156 141 134 113 128 134 139 143 144 144 145 146 151 152 152 148 140 134 131 127 125 121 100 64 45 29 7 5 11 354 336 334 313 287 297 295 298 310 297 288 279 269 266
230 217 182 164 159 158 167 150 121 129 141 141 141 136 136 143 148 152 155 156 154 147 141 139 138 129 120 112 92 74 46 25 15 11 8 356 340 336 313 300 285 309 306 297 288 290 279 270 266
222 225 201 145 174 176 227 176 126 147 155 150 148 147 147 148 152 151 154 154 148 149 145 147 138 128 121 105 88 73 42 28 14 3 2 359 345 330 307 299 296 317 295 294 298 289 294 289 284
216 241 218 140 175 195 237 144 139 159 170 166 166 164 163 158 161 163 164 160 156 158 153 151 138 140 131 119 106 81 65 28 5 358 358 355 339 333 311 307 321 295 288 294 299 310 307 300 295
299 279 241 176 147 218 220 159 154 168 179 179 175 172 173 173 171 170 170 165 166 167 169 165 163 158 160 156 155 148 36 2 356 358 8 347 339 340 324 303 315 300 291 293 300 304 294 295 294
297 282 257 108 157 236 218 183 171 177 188 185 183 179 180 181 168 171 173 176 178 181 185 187 189 178 193 207 244 277 309 319 331 341 3 342 340 340 325 317 315 298 296 302 296 295 291 285 302
257 249 181 150 174 233 209 183 170 186 196 196 192 185 187 183 175 180 186 189 194 195 199 201 205 203 212 212 246 287 312 307 321 329 338 327 332 326 319 330 308 308 302 285 288 285 292 296 296
264 286 237 177 164 188 201 185 188 193 201 202 204 197 194 188 185 188 196 202 205 208 211 215 216 215 222 224 240 251 256 267 283 316 313 323 320 316 320 315 314 315 298 301 303 290 280 289 290
297 338 202 180 201 180 226 223 180 187 195 204 203 198 196 194 195 199 203 208 213 216 217 220 221 223 223 225 246 269 289 302 317 312 316 313 300 304 307 308 309 307 304 307 293 300 295 282 283
50 141 180 199 223 206 201 273 137 175 192 197 196 197 199 198 200 206 212 216 220 221 222 222 224 226 224 229 236 253 275 294 300 305 300 295 295 289 295 302 305 302 297 307 308 304 290 285 281
138 159 180 214 235 257 46 302 129 170 185 182 187 193 198 200 205 211 217 219 223 223 224 225 221 223 221 225 234 249 275 287 296 297 300 295 293 290 290 292 296 293 300 300 293 293 281 284 291
211 260 255 226 228 57 95 289 75 145 169 176 178 186 195 200 207 211 216 218 220 222 222 220 215 217 216 222 232 244 261 272 273 282 290 293 296 296 300 300 293 294 294 289 287 281 285 282 279
252 301 332 332 348 36 156 347 101 152 173 184 186 187 193 203 209 214 217 216 217 214 208 205 208 216 217 225 236 246 255 269 280 283 291 292 292 298 306 291 285 285 285 284 282 279 273 271 273
241 307 349 299 304 313 63 73 147 170 189 195 198 200 204 207 208 210 207 205 200 196 193 198 205 218 226 237 241 248 255 270 282 284 273 279 286 289 289 287 283 282 282 280 278 274 277 275 271
315 280 279 319 340 340 43 51 73 175 192 196 202 206 207 203 204 201 194 190 187 185 184 195 209 224 236 244 251 255 259 264 268 276 286 287 286 286 286 283 282 281 280 277 272 272 266 267 267
184 212 274 309 335 325 348 48 78 173 191 198 203 207 206 206 199 189 185 183 183 186 192 203 214 228 240 250 254 263 267 271 271 272 275 279 282 285 282 281 282 281 281 277 272 270 274 268 268
251 258 250 292 309 299 308 11 127 176 194 208 214 204 204 200 192 184 182 184 191 200 206 214 227 237 246 254 257 260 265 269 273 277 280 280 279 280 282 282 281 281 281 277 272 271 271 269 267
Height
1530 1533 1536 1538 1532 1521 1514 1510 1507 1506 1506 1510 1510 1510 1510 1514 1518 1529 1533 1534 1536 1539 1540 1542 1545 1547 1549 1552 1554 1555 1557 1558 1559 1560 1561 1562 1563 1564 1564 1565 1565 1566 1566 1566 1566 1567 1567 1567 1567
1532 1535 1538 1535 1522 1515 1513 1509 1508 1508 1510 1512 1513 1514 1515 1522 1527 1530 1532 1535 1538 1541 1543 1544 1546 1549 1551 1553 1555 1557 1558 1559 1561 1562 1563 1563 1564 1565 1565 1566 1566 1566 1567 1567 1567 1567 1568 1568 1568
1534 1536 1536 1525 1515 1514 1513 1508 1508 1510 1512 1513 1515 1517 1520 1527 1531 1532 1534 1537 1541 1543 1545 1545 1548 1550 1553 1555 1557 1558 1559 1561 1562 1563 1563 1564 1565 1565 1566 1566 1566 1567 1567 1568 1568 1568 1568 1569 1569
1535 1536 1532 1521 1511 1510 1511 1509 1509 1510 1512 1514 1515 1520 1526 1531 1533 1534 1535 1539 1543 1545 1548 1547 1550 1552 1554 1556 1558 1559 1561 1562 1562 1563 1564 1565 1565 1566 1566 1566 1567 1567 1568 1568 1568 1569 1569 1569 1569
1535 1531 1521 1513 1509 1509 1509 1510 1509 1508 1511 1514 1516 1521 1529 1533 1534 1535 1538 1542 1545 1548 1550 1550 1551 1553 1556 1557 1559 1560 1561 1562 1563 1564 1564 1565 1565 1566 1566 1566 1567 1567 1568 1568 1568 1569 1569 1569 1570
1533 1525 1516 1509 1508 1509 1509 1510 1509 1510 1514 1517 1518 1523 1532 1534 1535 1537 1540 1544 1547 1549 1552 1551 1552 1554 1556 1558 1559 1560 1561 1562 1563 1564 1564 1565 1565 1565 1566 1566 1566 1567 1567 1568 1568 1568 1569 1569 1570
1529 1520 1512 1510 1510 1510 1511 1511 1510 1511 1515 1519 1521 1525 1532 1535 1536 1537 1541 1544 1548 1551 1553 1553 1555 1555 1557 1558 1560 1561 1561 1562 1563 1563 1564 1564 1564 1565 1565 1565 1566 1566 1566 1567 1567 1567 1568 1568 1569
1529 1521 1512 1509 1511 1510 1512 1513 1515 1514 1518 1523 1524 1525 1531 1535 1536 1538 1541 1545 1548 1551 1553 1554 1557 1558 1559 1559 1560 1560 1561 1562 1562 1563 1563 1563 1563 1564 1564 1564 1564 1564 1565 1565 1565 1566 1566 1567 1567
1531 1523 1512 1508 1511 1510 1511 1514 1518 1519 1521 1523 1526 1527 1530 1533 1536 1539 1543 1546 1548 1550 1552 1555 1557 1557 1559 1561 1560 1561 1561 1561 1562 1562 1562 1562 1563 1564 1563 1563 1562 1562 1562 1563 1563 1564 1564 1565 1565
1528 1519 1510 1510 1512 1511 1513 1515 1518 1519 1520 1524 1528 1530 1532 1535 1538 1542 1544 1547 1549 1551 1553 1554 1556 1557 1559 1560 1560 1561 1562 1561 1561 1562 1561 1561 1561 1561 1561 1560 1560 1560 1560 1560 1561 1561 1561 1562 1563
1523 1517 1513 1514 1514 1514 1515 1517 1518 1517 1519 1524 1528 1531 1534 1537 1540 1543 1545 1548 1550 1551 1553 1554 1555 1556 1558 1559 1559 1560 1560 1560 1560 1560 1559 1559 1559 1559 1559 1558 1558 1557 1557 1558 1558 1558 1559 1559 1560
1522 1518 1518 1517 1516 1516 1515 1517 1519 1520 1523 1527 1530 1533 1536 1538 1541 1544 1546 1548 1550 1552 1553 1554 1555 1555 1557 1558 1559 1559 1559 1560 1560 1559 1558 1558 1557 1557 1556 1556 1555 1555 1555 1555 1555 1555 1555 1555 1555
1520 1518 1519 1518 1517 1516 1518 1519 1522 1526 1529 1530 1532 1535 1538 1540 1542 1545 1546 1548 1550 1551 1553 1553 1554 1555 1556 1557 1558 1559 1559 1559 1558 1557 1556 1555 1555 1555 1554 1553 1552 1552 1552 1552 1551 1551 1551 1550 1551
1517 1517 1518 1518 1518 1519 1518 1521 1524 1530 1532 1533 1535 1537 1539 1541 1543 1545 1547 1548 1550 1551 1552 1553 1554 1555 1557 1558 1558 1558 1558 1557 1557 1556 1554 1553 1553 1553 1552 1551 1550 1550 1549 1548 1548 1548 1547 1547 1547
1518 1516 1515 1517 1518 1519 1519 1521 1526 1532 1533 1534 1536 1538 1540 1542 1544 1546 1547 1549 1550 1551 1552 1553 1555 1556 1557 1558 1558 1558 1558 1557 1556 1554 1553 1551 1551 1550 1549 1549 1548 1548 1547 1545 1545 1545 1544 1543 1543
1514 1512 1511 1515 1517 1519 1519 1519 1529 1532 1533 1535 1537 1539 1541 1543 1545 1546 1548 1549 1550 1552 1553 1554 1556 1556 1557 1557 1558 1558 1557 1556 1555 1553 1552 1549 1548 1547 1547 1547 1547 1544 1545 1544 1543 1542 1542 1541 1539
1509 1509 1509 1515 1517 1517 1516 1518 1529 1532 1533 1535 1537 1539 1541 1542 1544 1546 1547 1549 1550 1552 1553 1554 1556 1556 1557 1557 1557 1556 1555 1554 1553 1552 1550 1548 1546 1544 1544 1544 1543 1542 1542 1542 1541 1540 1539 1538 1536
1510 1508 1510 1513 1516 1516 1516 1519 1527 1531 1532 1534 1536 1539 1541 1542 1544 1546 1547 1549 1550 1552 1553 1554 1555 1556 1556 1556 1556 1555 1554 1554 1552 1551 1547 1545 1544 1542 1542 1542 1540 1540 1540 1539 1538 1537 1535 1534 1533
1507 1508 1512 1516 1518 1517 1517 1520 1525 1529 1531 1533 1535 1537 1539 1542 1544 1546 1547 1549 1550 1551 1552 1553 1555 1555 1555 1555 1556 1555 1555 1553 1552 1549 1546 1544 1542 1541 1539 1540 1538 1537 1537 1536 1536 1535 1534 1532 1531
1508 1510 1513 1518 1519 1518 1518 1521 1524 1528 1530 1532 1534 1536 1539 1541 1543 1545 1547 1548 1550 1551 1551 1552 1553 1554 1554 1554 1553 1553 1552 1551 1549 1547 1544 1542 1540 1539 1539 1536 1536 1535 1534 1533 1532 1531 1531 1530 1529
1508 1509 1511 1516 1519 1518 1520 1524 1525 1527 1530 1532 1533 1535 1537 1539 1542 1544 1546 1547 1549 1550 1550 1551 1552 1552 1552 1552 1552 1551 1549 1549 1548 1546 1544 1541 1539 1537 1535 1534 1533 1532 1531 1531 1529 1528 1528 1527 1526
1509 1507 1510 1514 1517 1517 1520 1526 1523 1523 1526 1529 1531 1533 1535 1538 1540 1543 1544 1546 1547 1548 1549 1549 1549 1550 1549 1549 1549 1549 1549 1548 1546 1544 1542 1539 1537 1535 1533 1532 1530 1529 1529 1527 1526 1526 1524 1524 1524
1509 1508 1509 1511 1512 1514 1516 1518 1519 1521 1524 1525 1527 1530 1533 1536 1538 1540 1542 1544 1545 1546 1547 1547 1547 1547 1547 1546 1546 1546 1546 1545 1543 1541 1539 1537 1536 1533 1531 1529 1528 1526 1526 1524 1522 1521 1521 1521 1520
1510 1510 1511 1509 1505 1517 1518 1518 1519 1515 1517 1519 1523 1527 1530 1533 1536 1538 1540 1541 1542 1543 1544 1544 1544 1544 1544 1543 1543 1542 1542 1540 1539 1538 1537 1535 1534 1532 1530 1527 1525 1524 1523 1521 1519 1518 1518 1517 1516
1509 1510 1514 1515 1515 1517 1516 1515 1515 1510 1513 1516 1519 1524 1527 1530 1533 1535 1537 1538 1539 1540 1541 1542 1541 1541 1541 1540 1540 1539 1538 1537 1535 1534 1534 1532 1531 1530 1527 1525 1522 1521 1519 1517 1516 1515 1514 1513 1512
1505 1505 1518 1526 1520 1512 1514 1514 1509 1509 1513 1516 1518 1521 1524 1527 1529 1531 1533 1535 1536 1537 1538 1538 1539 1538 1538 1537 1537 1535 1534 1534 1534 1532 1530 1529 1527 1526 1523 1521 1519 1517 1516 1514 1513 1512 1511 1510 1508
1504 1502 1501 1508 1510 1513 1510 1509 1505 1509 1511 1514 1516 1518 1521 1524 1526 1528 1530 1532 1533 1534 1535 1536 1535 1535 1535 1534 1533 1532 1531 1530 1529 1527 1526 1525 1523 1522 1520 1517 1515 1514 1512 1510 1508 1508 1507 1506 1504
1501 1501 1504 1507 1520 1520 1513 1510 1507 1506 1507 1508 1512 1514 1517 1520 1523 1525 1527 1529 1530 1531 1532 1532 1532 1532 1531 1530 1529 1529 1527 1526 1524 1523 1522 1520 1518 1517 1515 1513 1511 1509 1508 1506 1504 1503 1503 1501 1500
1506 1506 1504 1503 1508 1517 1518 1510 1496 1499 1501 1504 1507 1510 1513 1517 1519 1522 1524 1526 1527 1528 1529 1529 1528 1528 1527 1526 1525 1524 1523 1522 1521 1519 1518 1516 1514 1512 1510 1508 1506 1505 1503 1502 1500 1499 1498 1496 1495
1497 1498 1502 1510 1512 1510 1510 1507 1493 1496 1498 1501 1503 1507 1510 1514 1516 1519 1521 1523 1524 1525 1526 1525 1525 1524 1524 1523 1521 1520 1519 1518 1517 1516 1514 1512 1509 1507 1506 1504 1502 1500 1498 1497 1495 1493 1493 1491 1490